Time,TemperatureF,DewpointF,PressureIn,WindDirection,WindDirectionDegrees,WindSpeedMPH,WindSpeedGustMPH,Humidity,HourlyPrecipIn,Conditions,Clouds,dailyrainin,SoftwareType,DateUTC
2013-04-03 00:00:00,71.7,65.6,30.10,ESE,108,2.0,10.0,81,0.00,,CLR,0.00,VWS V14.01,2013-04-03 04:00:00,
2013-04-03 00:06:00,71.6,65.5,30.10,East,101,3.0,5.0,81,0.00,,CLR,0.00,VWS V14.01,2013-04-03 04:06:00,
2013-04-03 00:11:00,71.5,65.4,30.10,ESE,106,1.0,5.0,81,0.00,,CLR,0.00,VWS V14.01,2013-04-03 04:11:00,
2013-04-03 00:15:00,71.5,65.4,30.10,ESE,118,1.0,6.0,81,0.00,,CLR,0.00,VWS V14.01,2013-04-03 04:15:00,
2013-04-03 00:21:00,71.4,65.3,30.09,East,96,4.0,6.0,81,0.00,,CLR,0.00,VWS V14.01,2013-04-03 04:21:00,
2013-04-03 00:26:00,71.4,65.3,30.10,East,85,0.0,6.0,81,0.00,,CLR,0.00,VWS V14.01,2013-04-03 04:26:00,
2013-04-03 00:31:00,71.3,65.2,30.10,East,90,2.0,6.0,81,0.00,,CLR,0.00,VWS V14.01,2013-04-03 04:31:00,
2013-04-03 00:36:00,71.3,65.2,30.10,East,80,4.0,6.0,81,0.00,,CLR,0.00,VWS V14.01,2013-04-03 04:36:00,
2013-04-03 00:41:00,71.2,65.1,30.09,ESE,107,0.0,6.0,81,0.00,,CLR,0.00,VWS V14.01,2013-04-03 04:41:00,
2013-04-03 00:46:00,71.2,65.4,30.09,East,83,1.0,6.0,82,0.00,,CLR,0.00,VWS V14.01,2013-04-03 04:46:00,
2013-04-03 00:51:00,71.2,65.4,30.10,ENE,76,3.0,6.0,82,0.00,,CLR,0.00,VWS V14.01,2013-04-03 04:51:00,
2013-04-03 00:56:00,71.1,65.0,30.09,ENE,75,2.0,6.0,81,0.00,,CLR,0.00,VWS V14.01,2013-04-03 04:56:00,
2013-04-03 01:01:00,71.1,65.3,30.10,ESE,103,3.0,3.0,82,0.00,,CLR,0.00,VWS V14.01,2013-04-03 05:01:00,
2013-04-03 01:06:00,71.1,65.3,30.09,East,85,2.0,5.0,82,0.00,,CLR,0.00,VWS V14.01,2013-04-03 05:06:00,
2013-04-03 01:11:00,71.1,65.3,30.09,ENE,75,0.0,5.0,82,0.00,,CLR,0.00,VWS V14.01,2013-04-03 05:11:00,
2013-04-03 01:16:00,71.0,65.2,30.10,SE,125,0.0,5.0,82,0.00,,CLR,0.00,VWS V14.01,2013-04-03 05:16:00,
2013-04-03 01:21:00,71.0,65.2,30.09,ESE,109,0.0,5.0,82,0.00,,CLR,0.00,VWS V14.01,2013-04-03 05:21:00,
2013-04-03 01:26:00,71.0,65.2,30.09,ENE,73,3.0,5.0,82,0.00,,CLR,0.00,VWS V14.01,2013-04-03 05:26:00,
2013-04-03 01:31:00,71.0,65.2,30.08,East,97,2.0,5.0,82,0.00,,CLR,0.00,VWS V14.01,2013-04-03 05:31:00,
2013-04-03 01:36:00,71.0,65.2,30.09,East,79,2.0,5.0,82,0.00,,CLR,0.00,VWS V14.01,2013-04-03 05:36:00,
2013-04-03 01:41:00,71.0,65.6,30.09,ESE,111,5.0,7.0,83,0.00,,CLR,0.00,VWS V14.01,2013-04-03 05:41:00,
2013-04-03 01:46:00,71.0,65.6,30.09,East,86,4.0,7.0,83,0.00,,CLR,0.00,VWS V14.01,2013-04-03 05:46:00,
2013-04-03 01:51:00,71.0,65.6,30.09,East,84,1.0,7.0,83,0.00,,CLR,0.00,VWS V14.01,2013-04-03 05:51:00,
2013-04-03 01:56:00,71.0,65.6,30.09,ESE,107,3.0,7.0,83,0.00,,CLR,0.00,VWS V14.01,2013-04-03 05:56:00,
2013-04-03 02:01:00,71.0,65.6,30.09,ENE,63,2.0,3.0,83,0.00,,CLR,0.00,VWS V14.01,2013-04-03 06:01:00,
2013-04-03 02:06:00,71.0,65.2,30.09,ESE,110,3.0,4.0,82,0.00,,CLR,0.00,VWS V14.01,2013-04-03 06:06:00,
2013-04-03 02:11:00,70.9,65.1,30.09,ENE,78,3.0,5.0,82,0.00,,CLR,0.00,VWS V14.01,2013-04-03 06:11:00,
2013-04-03 02:16:00,70.9,65.1,30.09,ESE,102,2.0,5.0,82,0.00,,CLR,0.00,VWS V14.01,2013-04-03 06:16:00,
2013-04-03 02:21:00,70.9,65.1,30.09,ESE,115,0.0,5.0,82,0.00,,CLR,0.00,VWS V14.01,2013-04-03 06:21:00,
2013-04-03 02:26:00,70.9,65.5,30.09,ESE,108,0.0,5.0,83,0.00,,CLR,0.00,VWS V14.01,2013-04-03 06:26:00,
2013-04-03 02:31:00,70.9,65.5,30.09,East,85,0.0,5.0,83,0.00,,CLR,0.00,VWS V14.01,2013-04-03 06:31:00,
2013-04-03 02:36:00,70.9,65.5,30.08,East,87,0.0,5.0,83,0.00,,CLR,0.00,VWS V14.01,2013-04-03 06:36:00,
2013-04-03 02:41:00,70.9,65.5,30.08,East,98,3.0,5.0,83,0.00,,CLR,0.00,VWS V14.01,2013-04-03 06:41:00,
2013-04-03 02:46:00,70.8,65.4,30.08,ESE,120,0.0,5.0,83,0.00,,CLR,0.00,VWS V14.01,2013-04-03 06:46:00,
2013-04-03 02:51:00,70.8,65.4,30.08,ESE,116,0.0,5.0,83,0.00,,CLR,0.00,VWS V14.01,2013-04-03 06:51:00,
2013-04-03 02:56:00,70.7,65.3,30.07,ESE,116,2.0,5.0,83,0.00,,CLR,0.00,VWS V14.01,2013-04-03 06:56:00,
2013-04-03 03:01:00,70.7,65.3,30.07,ESE,103,2.0,5.0,83,0.00,,CLR,0.00,VWS V14.01,2013-04-03 07:01:00,
2013-04-03 03:06:00,70.7,65.3,30.07,ESE,102,0.0,5.0,83,0.00,,CLR,0.00,VWS V14.01,2013-04-03 07:06:00,
2013-04-03 03:11:00,70.6,65.5,30.07,ESE,102,0.0,5.0,84,0.00,,CLR,0.00,VWS V14.01,2013-04-03 07:11:00,
2013-04-03 03:16:00,70.6,65.5,30.07,ESE,102,0.0,5.0,84,0.00,,CLR,0.00,VWS V14.01,2013-04-03 07:16:00,
2013-04-03 03:21:00,70.5,65.4,30.06,ESE,102,0.0,5.0,84,0.00,,CLR,0.00,VWS V14.01,2013-04-03 07:21:00,
2013-04-03 03:26:00,70.5,65.4,30.06,ESE,102,0.0,5.0,84,0.00,,CLR,0.00,VWS V14.01,2013-04-03 07:26:00,
2013-04-03 03:31:00,70.5,65.4,30.06,ESE,102,0.0,5.0,84,0.00,,CLR,0.00,VWS V14.01,2013-04-03 07:31:00,
2013-04-03 03:36:00,70.5,65.4,30.05,ESE,102,0.0,5.0,84,0.00,,CLR,0.00,VWS V14.01,2013-04-03 07:36:00,
2013-04-03 03:41:00,70.5,65.4,30.06,ESE,102,0.0,5.0,84,0.00,,CLR,0.00,VWS V14.01,2013-04-03 07:41:00,
2013-04-03 03:46:00,70.5,65.4,30.06,ESE,109,1.0,5.0,84,0.00,,CLR,0.00,VWS V14.01,2013-04-03 07:46:00,
2013-04-03 03:51:00,70.5,65.4,30.06,ESE,109,0.0,5.0,84,0.00,,CLR,0.00,VWS V14.01,2013-04-03 07:51:00,
2013-04-03 03:56:00,70.4,65.3,30.05,ESE,109,0.0,5.0,84,0.00,,CLR,0.00,VWS V14.01,2013-04-03 07:56:00,
2013-04-03 04:01:00,70.2,65.1,30.04,ENE,68,0.0,1.0,84,0.00,,CLR,0.00,VWS V14.01,2013-04-03 08:01:00,
2013-04-03 04:06:00,70.1,65.4,30.05,ENE,68,0.0,1.0,85,0.00,,CLR,0.00,VWS V14.01,2013-04-03 08:06:00,
2013-04-03 04:11:00,70.0,65.3,30.05,ENE,68,0.0,1.0,85,0.00,,CLR,0.00,VWS V14.01,2013-04-03 08:11:00,
2013-04-03 04:16:00,70.0,65.6,30.05,ENE,76,0.0,5.0,86,0.00,,CLR,0.00,VWS V14.01,2013-04-03 08:16:00,
2013-04-03 04:22:00,70.0,65.6,30.05,ENE,76,0.0,5.0,86,0.00,,CLR,0.00,VWS V14.01,2013-04-03 08:22:00,
2013-04-03 04:27:00,70.1,65.7,30.05,ENE,76,0.0,5.0,86,0.00,,CLR,0.00,VWS V14.01,2013-04-03 08:27:00,
2013-04-03 04:32:00,70.1,65.7,30.05,ESE,112,0.0,6.0,86,0.00,,CLR,0.00,VWS V14.01,2013-04-03 08:32:00,
2013-04-03 04:37:00,70.1,65.7,30.05,SE,130,1.0,6.0,86,0.00,,CLR,0.00,VWS V14.01,2013-04-03 08:37:00,
2013-04-03 04:42:00,70.1,65.4,30.05,ESE,122,1.0,6.0,85,0.00,,CLR,0.00,VWS V14.01,2013-04-03 08:42:00,
2013-04-03 04:47:00,70.1,65.4,30.05,ESE,117,0.0,6.0,85,0.00,,CLR,0.00,VWS V14.01,2013-04-03 08:47:00,
2013-04-03 04:52:00,70.1,65.1,30.05,ESE,107,2.0,8.0,84,0.00,,CLR,0.00,VWS V14.01,2013-04-03 08:52:00,
2013-04-03 04:57:00,70.1,65.1,30.06,ESE,105,1.0,8.0,84,0.00,,CLR,0.00,VWS V14.01,2013-04-03 08:57:00,
2013-04-03 05:02:00,70.2,65.1,30.05,SE,126,4.0,8.0,84,0.00,,CLR,0.00,VWS V14.01,2013-04-03 09:02:00,
2013-04-03 05:07:00,70.2,65.1,30.05,SE,133,2.0,8.0,84,0.00,,CLR,0.00,VWS V14.01,2013-04-03 09:07:00,
2013-04-03 05:12:00,70.2,65.1,30.05,SE,128,1.0,8.0,84,0.00,,CLR,0.00,VWS V14.01,2013-04-03 09:12:00,
2013-04-03 05:17:00,70.2,65.1,30.04,ESE,111,4.0,8.0,84,0.00,,CLR,0.00,VWS V14.01,2013-04-03 09:17:00,
2013-04-03 05:22:00,70.2,65.1,30.05,SE,126,0.0,8.0,84,0.00,,CLR,0.00,VWS V14.01,2013-04-03 09:22:00,
2013-04-03 05:27:00,70.2,65.1,30.04,SE,126,0.0,8.0,84,0.00,,CLR,0.00,VWS V14.01,2013-04-03 09:27:00,
2013-04-03 05:32:00,70.2,65.1,30.05,ESE,120,2.0,8.0,84,0.00,,CLR,0.00,VWS V14.01,2013-04-03 09:32:00,
2013-04-03 05:37:00,70.2,65.1,30.05,ESE,105,0.0,8.0,84,0.00,,CLR,0.00,VWS V14.01,2013-04-03 09:37:00,
2013-04-03 05:42:00,70.2,65.1,30.05,ESE,119,1.0,8.0,84,0.00,,CLR,0.00,VWS V14.01,2013-04-03 09:42:00,
2013-04-03 05:47:00,70.2,65.1,30.05,SE,142,2.0,8.0,84,0.00,,CLR,0.00,VWS V14.01,2013-04-03 09:47:00,
2013-04-03 05:52:00,70.2,65.1,30.05,SE,141,0.0,8.0,84,0.00,,CLR,0.00,VWS V14.01,2013-04-03 09:52:00,
2013-04-03 05:57:00,70.2,65.1,30.05,SE,141,0.0,8.0,84,0.00,,CLR,0.00,VWS V14.01,2013-04-03 09:57:00,
2013-04-03 06:02:00,70.2,65.1,30.05,ESE,119,5.0,5.0,84,0.00,,CLR,0.00,VWS V14.01,2013-04-03 10:02:00,
2013-04-03 06:07:00,70.2,65.5,30.05,SE,140,0.0,6.0,85,0.00,,CLR,0.00,VWS V14.01,2013-04-03 10:07:00,
2013-04-03 06:12:00,70.2,65.1,30.05,ESE,121,0.0,6.0,84,0.00,,CLR,0.00,VWS V14.01,2013-04-03 10:12:00,
2013-04-03 06:17:00,70.2,65.5,30.05,East,89,2.0,6.0,85,0.00,,CLR,0.00,VWS V14.01,2013-04-03 10:17:00,
2013-04-03 06:22:00,70.1,65.4,30.05,SE,124,5.0,6.0,85,0.00,,CLR,0.00,VWS V14.01,2013-04-03 10:22:00,
2013-04-03 06:27:00,70.2,65.1,30.06,ESE,123,3.0,6.0,84,0.00,,CLR,0.00,VWS V14.01,2013-04-03 10:27:00,
2013-04-03 06:32:00,70.1,65.1,30.06,East,97,0.0,6.0,84,0.00,,CLR,0.00,VWS V14.01,2013-04-03 10:32:00,
2013-04-03 06:37:00,70.1,65.1,30.06,ESE,102,1.0,6.0,84,0.00,,CLR,0.00,VWS V14.01,2013-04-03 10:37:00,
2013-04-03 06:42:00,70.1,65.1,30.06,East,101,2.0,6.0,84,0.00,,CLR,0.00,VWS V14.01,2013-04-03 10:42:00,
2013-04-03 06:47:00,70.1,65.4,30.06,East,101,2.0,6.0,85,0.00,,CLR,0.00,VWS V14.01,2013-04-03 10:47:00,
2013-04-03 06:52:00,70.1,65.1,30.06,ESE,122,4.0,6.0,84,0.00,,CLR,0.00,VWS V14.01,2013-04-03 10:52:00,
2013-04-03 06:57:00,70.1,65.1,30.06,SE,137,3.0,6.0,84,0.00,,CLR,0.00,VWS V14.01,2013-04-03 10:57:00,
2013-04-03 07:02:00,70.1,65.1,30.06,SE,133,4.0,5.0,84,0.00,,SCT034,0.00,VWS V14.01,2013-04-03 11:02:00,
2013-04-03 07:07:00,70.2,65.5,30.06,ESE,118,0.0,5.0,85,0.00,,SCT034,0.00,VWS V14.01,2013-04-03 11:07:00,
2013-04-03 07:12:00,70.1,65.1,30.06,ESE,122,1.0,5.0,84,0.00,,BKN035,0.00,VWS V14.01,2013-04-03 11:12:00,
2013-04-03 07:17:00,70.1,65.4,30.06,SE,125,2.0,5.0,85,0.00,,BKN035,0.00,VWS V14.01,2013-04-03 11:17:00,
2013-04-03 07:22:00,70.1,65.4,30.06,SE,125,2.0,5.0,85,0.00,,BKN060,0.00,VWS V14.01,2013-04-03 11:22:00,
2013-04-03 07:27:00,70.1,65.4,30.07,ESE,116,0.0,6.0,85,0.00,,BKN060,0.00,VWS V14.01,2013-04-03 11:27:00,
2013-04-03 07:32:00,70.1,65.7,30.08,ESE,117,1.0,6.0,86,0.00,,BKN060,0.00,VWS V14.01,2013-04-03 11:32:00,
2013-04-03 07:37:00,70.1,65.7,30.07,SE,141,0.0,6.0,86,0.00,,BKN060,0.00,VWS V14.01,2013-04-03 11:37:00,
2013-04-03 07:42:00,70.2,66.2,30.07,SE,141,0.0,6.0,87,0.00,,BKN060,0.00,VWS V14.01,2013-04-03 11:42:00,
2013-04-03 07:47:00,70.2,66.2,30.07,SE,140,0.0,6.0,87,0.00,,BKN060,0.00,VWS V14.01,2013-04-03 11:47:00,
2013-04-03 07:52:00,70.3,66.2,30.07,SE,140,0.0,6.0,87,0.00,,BKN060,0.00,VWS V14.01,2013-04-03 11:52:00,
2013-04-03 07:57:00,70.3,66.2,30.07,SE,141,0.0,6.0,87,0.00,,BKN060,0.00,VWS V14.01,2013-04-03 11:57:00,
2013-04-03 08:02:00,70.4,66.3,30.08,SE,141,0.0,0.0,87,0.00,,FEW029,0.00,VWS V14.01,2013-04-03 12:02:00,
2013-04-03 08:07:00,70.6,66.9,30.09,SSE,148,1.0,4.0,88,0.00,,FEW029,0.00,VWS V14.01,2013-04-03 12:07:00,
2013-04-03 08:12:00,70.8,67.4,30.08,SSE,149,0.0,4.0,89,0.00,,FEW029,0.00,VWS V14.01,2013-04-03 12:12:00,
2013-04-03 08:17:00,71.0,67.3,30.08,ESE,122,0.0,5.0,88,0.00,,FEW029,0.00,VWS V14.01,2013-04-03 12:17:00,
2013-04-03 08:22:00,71.2,67.5,30.08,ESE,109,2.0,7.0,88,0.00,,FEW029,0.00,VWS V14.01,2013-04-03 12:22:00,
2013-04-03 08:27:00,71.5,67.8,30.08,ESE,123,0.0,7.0,88,0.00,,FEW029,0.00,VWS V14.01,2013-04-03 12:27:00,
2013-04-03 08:32:00,71.8,68.1,30.08,ESE,106,0.0,7.0,88,0.00,,FEW029,0.00,VWS V14.01,2013-04-03 12:32:00,
2013-04-03 08:37:00,72.0,68.6,30.08,SSE,157,4.0,7.0,89,0.00,,FEW029,0.00,VWS V14.01,2013-04-03 12:37:00,
2013-04-03 08:42:00,72.4,68.7,30.08,SE,139,8.0,8.0,88,0.00,,FEW029,0.00,VWS V14.01,2013-04-03 12:42:00,
2013-04-03 08:47:00,72.7,68.6,30.07,SE,144,3.0,10.0,87,0.00,,FEW029,0.00,VWS V14.01,2013-04-03 12:47:00,
2013-04-03 08:52:00,73.0,68.9,30.08,SSE,150,8.0,10.0,87,0.00,,FEW029,0.00,VWS V14.01,2013-04-03 12:52:00,
2013-04-03 08:57:00,73.4,69.0,30.08,SE,127,3.0,10.0,86,0.00,,FEW029,0.00,VWS V14.01,2013-04-03 12:57:00,
2013-04-03 09:02:00,73.8,69.0,30.08,SE,140,8.0,13.0,85,0.00,,FEW030,0.00,VWS V14.01,2013-04-03 13:02:00,
2013-04-03 09:07:00,74.1,68.6,30.08,SSE,149,6.0,13.0,83,0.00,,FEW030,0.00,VWS V14.01,2013-04-03 13:07:00,
2013-04-03 09:12:00,74.4,68.6,30.08,SE,145,10.0,14.0,82,0.00,,FEW030,0.00,VWS V14.01,2013-04-03 13:12:00,
2013-04-03 09:17:00,74.8,68.9,30.08,SSE,166,8.0,14.0,82,0.00,,FEW030,0.00,VWS V14.01,2013-04-03 13:17:00,
2013-04-03 09:22:00,75.0,69.1,30.08,SSE,151,4.0,14.0,82,0.00,,FEW030,0.00,VWS V14.01,2013-04-03 13:22:00,
2013-04-03 09:27:00,75.4,68.8,30.08,SE,141,5.0,14.0,80,0.00,,FEW030,0.00,VWS V14.01,2013-04-03 13:27:00,
2013-04-03 09:32:00,75.6,68.6,30.08,SE,125,4.0,14.0,79,0.00,,FEW030,0.00,VWS V14.01,2013-04-03 13:32:00,
2013-04-03 09:38:00,76.0,69.0,30.09,SSE,156,3.0,14.0,79,0.00,,FEW030,0.00,VWS V14.01,2013-04-03 13:38:00,
2013-04-03 09:43:00,76.3,70.1,30.09,SE,131,4.0,14.0,81,0.00,,FEW030,0.00,VWS V14.01,2013-04-03 13:43:00,
2013-04-03 09:48:00,76.6,69.6,30.08,SE,141,7.0,14.0,79,0.00,,FEW030,0.00,VWS V14.01,2013-04-03 13:48:00,
2013-04-03 09:53:00,76.7,68.6,30.08,ESE,122,3.0,15.0,76,0.00,,FEW030,0.00,VWS V14.01,2013-04-03 13:53:00,
2013-04-03 09:58:00,76.8,69.8,30.08,ESE,104,10.0,15.0,79,0.00,,FEW030,0.00,VWS V14.01,2013-04-03 13:58:00,
2013-04-03 10:03:00,76.9,69.5,30.08,SE,124,3.0,10.0,78,0.00,,CLR,0.00,VWS V14.01,2013-04-03 14:03:00,
2013-04-03 10:08:00,77.1,69.3,30.08,East,90,6.0,15.0,77,0.00,,CLR,0.00,VWS V14.01,2013-04-03 14:08:00,
2013-04-03 10:13:00,77.1,68.6,30.09,SE,126,10.0,15.0,75,0.00,,CLR,0.00,VWS V14.01,2013-04-03 14:13:00,
2013-04-03 10:18:00,77.3,68.8,30.09,SE,126,3.0,15.0,75,0.00,,CLR,0.00,VWS V14.01,2013-04-03 14:18:00,
2013-04-03 10:23:00,77.5,68.6,30.08,SE,133,7.0,15.0,74,0.00,,CLR,0.00,VWS V14.01,2013-04-03 14:23:00,
2013-04-03 10:28:00,77.9,68.6,30.09,SSE,156,2.0,15.0,73,0.00,,CLR,0.00,VWS V14.01,2013-04-03 14:28:00,
2013-04-03 10:33:00,78.2,68.8,30.09,ESE,106,7.0,15.0,73,0.00,,CLR,0.00,VWS V14.01,2013-04-03 14:33:00,
2013-04-03 10:38:00,78.3,68.9,30.09,ESE,102,11.0,15.0,73,0.00,,CLR,0.00,VWS V14.01,2013-04-03 14:38:00,
2013-04-03 10:43:00,78.3,68.9,30.09,SE,125,9.0,15.0,73,0.00,,CLR,0.00,VWS V14.01,2013-04-03 14:43:00,
2013-04-03 10:48:00,78.4,68.6,30.09,SE,138,6.0,15.0,72,0.00,,CLR,0.00,VWS V14.01,2013-04-03 14:48:00,
2013-04-03 10:53:00,78.7,68.9,30.08,SE,125,8.0,15.0,72,0.00,,CLR,0.00,VWS V14.01,2013-04-03 14:53:00,
2013-04-03 10:58:00,79.0,68.8,30.08,ESE,107,7.0,15.0,71,0.00,,CLR,0.00,VWS V14.01,2013-04-03 14:58:00,
2013-04-03 11:03:00,79.1,68.9,30.09,SE,136,11.0,14.0,71,0.00,,CLR,0.00,VWS V14.01,2013-04-03 15:03:00,
2013-04-03 11:08:00,79.1,68.5,30.08,South,171,6.0,16.0,70,0.00,,CLR,0.00,VWS V14.01,2013-04-03 15:08:00,
2013-04-03 11:13:00,79.0,68.4,30.09,SE,137,5.0,16.0,70,0.00,,CLR,0.00,VWS V14.01,2013-04-03 15:13:00,
2013-04-03 11:18:00,79.0,68.8,30.09,SSE,154,9.0,19.0,71,0.00,,CLR,0.00,VWS V14.01,2013-04-03 15:18:00,
2013-04-03 11:23:00,79.2,68.6,30.09,ESE,114,7.0,19.0,70,0.00,,CLR,0.00,VWS V14.01,2013-04-03 15:23:00,
2013-04-03 11:28:00,79.3,68.7,30.09,ESE,117,10.0,19.0,70,0.00,,CLR,0.00,VWS V14.01,2013-04-03 15:28:00,
2013-04-03 11:33:00,79.5,68.4,30.08,ESE,120,8.0,19.0,69,0.00,,CLR,0.00,VWS V14.01,2013-04-03 15:33:00,
2013-04-03 11:38:00,79.5,68.4,30.08,East,99,10.0,19.0,69,0.00,,CLR,0.00,VWS V14.01,2013-04-03 15:38:00,
2013-04-03 11:43:00,79.5,68.9,30.08,SE,127,6.0,19.0,70,0.00,,CLR,0.00,VWS V14.01,2013-04-03 15:43:00,
2013-04-03 11:48:00,79.8,69.2,30.08,ESE,113,3.0,19.0,70,0.00,,CLR,0.00,VWS V14.01,2013-04-03 15:48:00,
2013-04-03 11:53:00,79.8,69.2,30.08,SE,135,4.0,19.0,70,0.00,,CLR,0.00,VWS V14.01,2013-04-03 15:53:00,
2013-04-03 11:58:00,80.0,68.9,30.08,SE,139,10.0,19.0,69,0.00,,CLR,0.00,VWS V14.01,2013-04-03 15:58:00,
2013-04-03 12:03:00,80.2,68.7,30.08,ESE,113,14.0,15.0,68,0.00,,CLR,0.00,VWS V14.01,2013-04-03 16:03:00,
2013-04-03 12:08:00,80.3,68.3,30.08,SE,127,7.0,18.0,67,0.00,,CLR,0.00,VWS V14.01,2013-04-03 16:08:00,
2013-04-03 12:13:00,80.2,68.3,30.07,ESE,104,6.0,18.0,67,0.00,,CLR,0.00,VWS V14.01,2013-04-03 16:13:00,
2013-04-03 12:18:00,80.2,69.1,30.07,SE,141,7.0,18.0,69,0.00,,CLR,0.00,VWS V14.01,2013-04-03 16:18:00,
2013-04-03 12:23:00,80.3,68.8,30.07,ESE,102,6.0,18.0,68,0.00,,CLR,0.00,VWS V14.01,2013-04-03 16:23:00,
2013-04-03 12:28:00,80.4,69.3,30.07,SE,141,10.0,18.0,69,0.00,,CLR,0.00,VWS V14.01,2013-04-03 16:28:00,
2013-04-03 12:33:00,80.4,68.4,30.07,ESE,123,11.0,18.0,67,0.00,,CLR,0.00,VWS V14.01,2013-04-03 16:33:00,
2013-04-03 12:38:00,80.6,68.6,30.06,SE,137,9.0,18.0,67,0.00,,CLR,0.00,VWS V14.01,2013-04-03 16:38:00,
2013-04-03 12:43:00,80.7,68.7,30.06,East,100,10.0,18.0,67,0.00,,CLR,0.00,VWS V14.01,2013-04-03 16:43:00,
2013-04-03 12:48:00,80.6,68.2,30.07,ESE,119,6.0,18.0,66,0.00,,CLR,0.00,VWS V14.01,2013-04-03 16:48:00,
2013-04-03 12:53:00,80.4,68.4,30.06,ESE,104,9.0,18.0,67,0.00,,CLR,0.00,VWS V14.01,2013-04-03 16:53:00,
2013-04-03 12:58:00,80.6,67.8,30.06,ESE,121,7.0,18.0,65,0.00,,CLR,0.00,VWS V14.01,2013-04-03 16:58:00,
2013-04-03 13:03:00,80.3,67.9,30.06,ESE,116,4.0,20.0,66,0.00,,FEW030,0.00,VWS V14.01,2013-04-03 17:03:00,
2013-04-03 13:08:00,80.3,67.9,30.06,SE,145,9.0,20.0,66,0.00,,FEW030,0.00,VWS V14.01,2013-04-03 17:08:00,
2013-04-03 13:13:00,80.2,68.3,30.06,SE,144,12.0,20.0,67,0.00,,FEW030,0.00,VWS V14.01,2013-04-03 17:13:00,
2013-04-03 13:19:00,80.5,69.0,30.06,ESE,112,7.0,20.0,68,0.00,,FEW030,0.00,VWS V14.01,2013-04-03 17:19:00,
2013-04-03 13:24:00,80.8,68.8,30.06,East,95,4.0,20.0,67,0.00,,FEW030,0.00,VWS V14.01,2013-04-03 17:24:00,
2013-04-03 13:29:00,81.1,69.1,30.06,ESE,120,12.0,20.0,67,0.00,,FEW030,0.00,VWS V14.01,2013-04-03 17:29:00,
2013-04-03 13:34:00,81.2,68.3,30.06,SE,124,11.0,20.0,65,0.00,,FEW030,0.00,VWS V14.01,2013-04-03 17:34:00,
2013-04-03 13:39:00,81.1,68.2,30.06,ESE,123,12.0,20.0,65,0.00,,FEW030,0.00,VWS V14.01,2013-04-03 17:39:00,
2013-04-03 13:44:00,81.1,69.1,30.07,SE,133,12.0,20.0,67,0.00,,FEW030,0.00,VWS V14.01,2013-04-03 17:44:00,
2013-04-03 13:49:00,81.2,69.2,30.06,ESE,111,10.0,20.0,67,0.00,,FEW030,0.00,VWS V14.01,2013-04-03 17:49:00,
2013-04-03 13:54:00,81.0,69.0,30.06,SE,124,7.0,20.0,67,0.00,,FEW030,0.00,VWS V14.01,2013-04-03 17:54:00,
2013-04-03 13:59:00,81.1,70.0,30.05,ESE,104,4.0,20.0,69,0.00,,FEW030,0.00,VWS V14.01,2013-04-03 17:59:00,
2013-04-03 14:04:00,81.2,69.6,30.05,SE,124,8.0,16.0,68,0.00,,CLR,0.00,VWS V14.01,2013-04-03 18:04:00,
2013-04-03 14:09:00,81.4,69.8,30.06,ESE,121,8.0,16.0,68,0.00,,CLR,0.00,VWS V14.01,2013-04-03 18:09:00,
2013-04-03 14:14:00,81.2,69.6,30.05,ESE,121,13.0,16.0,68,0.00,,CLR,0.00,VWS V14.01,2013-04-03 18:14:00,
2013-04-03 14:19:00,81.0,69.4,30.05,ESE,121,6.0,17.0,68,0.00,,CLR,0.00,VWS V14.01,2013-04-03 18:19:00,
2013-04-03 14:24:00,80.9,68.9,30.05,SE,141,6.0,17.0,67,0.00,,CLR,0.00,VWS V14.01,2013-04-03 18:24:00,
2013-04-03 14:29:00,81.0,69.9,30.05,ESE,113,12.0,17.0,69,0.00,,CLR,0.00,VWS V14.01,2013-04-03 18:29:00,
2013-04-03 14:34:00,81.1,69.6,30.05,ESE,120,14.0,17.0,68,0.00,,CLR,0.00,VWS V14.01,2013-04-03 18:34:00,
2013-04-03 14:39:00,81.1,69.1,30.04,ESE,106,12.0,17.0,67,0.00,,CLR,0.00,VWS V14.01,2013-04-03 18:39:00,
2013-04-03 14:44:00,81.2,69.6,30.04,SSE,150,4.0,18.0,68,0.00,,CLR,0.00,VWS V14.01,2013-04-03 18:44:00,
2013-04-03 14:49:00,81.4,69.8,30.04,ESE,115,12.0,18.0,68,0.00,,CLR,0.00,VWS V14.01,2013-04-03 18:49:00,
2013-04-03 14:55:00,81.5,69.5,30.04,ESE,111,2.0,18.0,67,0.00,,CLR,0.00,VWS V14.01,2013-04-03 18:55:00,
2013-04-03 15:00:00,81.8,69.8,30.04,ESE,110,9.0,10.0,67,0.00,,CLR,0.00,VWS V14.01,2013-04-03 19:00:00,
2013-04-03 15:05:00,81.6,70.4,30.04,ESE,103,9.0,13.0,69,0.00,,CLR,0.00,VWS V14.01,2013-04-03 19:05:00,
2013-04-03 15:10:00,80.9,69.8,30.03,East,99,13.0,16.0,69,0.00,,CLR,0.00,VWS V14.01,2013-04-03 19:10:00,
2013-04-03 15:15:00,80.6,69.9,30.04,ESE,110,15.0,16.0,70,0.00,,CLR,0.00,VWS V14.01,2013-04-03 19:15:00,
2013-04-03 15:20:00,80.2,69.9,30.04,East,100,9.0,16.0,71,0.00,,CLR,0.00,VWS V14.01,2013-04-03 19:20:00,
2013-04-03 15:25:00,80.0,69.8,30.05,ESE,103,8.0,17.0,71,0.00,,CLR,0.00,VWS V14.01,2013-04-03 19:25:00,
2013-04-03 15:30:00,79.9,70.1,30.05,ESE,117,4.0,17.0,72,0.00,,CLR,0.00,VWS V14.01,2013-04-03 19:30:00,
2013-04-03 15:35:00,80.0,70.6,30.04,ESE,105,5.0,17.0,73,0.00,,CLR,0.00,VWS V14.01,2013-04-03 19:35:00,
2013-04-03 15:40:00,79.9,70.5,30.04,ESE,108,8.0,17.0,73,0.00,,CLR,0.00,VWS V14.01,2013-04-03 19:40:00,
2013-04-03 15:45:00,79.8,70.0,30.04,East,93,14.0,17.0,72,0.00,,CLR,0.00,VWS V14.01,2013-04-03 19:45:00,
2013-04-03 15:50:00,79.6,70.6,30.03,ESE,119,7.0,17.0,74,0.00,,CLR,0.00,VWS V14.01,2013-04-03 19:50:00,
2013-04-03 15:55:00,79.7,70.3,30.04,ESE,107,6.0,17.0,73,0.00,,CLR,0.00,VWS V14.01,2013-04-03 19:55:00,
2013-04-03 16:00:00,79.9,70.1,30.04,ESE,116,7.0,11.0,72,0.00,,CLR,0.00,VWS V14.01,2013-04-03 20:00:00,
2013-04-03 16:05:00,80.0,70.2,30.03,ESE,108,12.0,18.0,72,0.00,,SCT100,0.00,VWS V14.01,2013-04-03 20:05:00,
2013-04-03 16:10:00,79.9,70.5,30.03,ESE,102,9.0,18.0,73,0.00,,SCT100,0.00,VWS V14.01,2013-04-03 20:10:00,
2013-04-03 16:15:00,79.8,70.8,30.02,ESE,104,12.0,18.0,74,0.00,,SCT100,0.00,VWS V14.01,2013-04-03 20:15:00,
2013-04-03 16:20:00,79.6,70.6,30.03,ESE,104,8.0,18.0,74,0.00,,SCT100,0.00,VWS V14.01,2013-04-03 20:20:00,
2013-04-03 16:25:00,79.4,70.4,30.03,East,90,10.0,18.0,74,0.00,,SCT100,0.00,VWS V14.01,2013-04-03 20:25:00,
2013-04-03 16:30:00,79.2,70.2,30.02,SSE,164,4.0,18.0,74,0.00,,SCT100,0.00,VWS V14.01,2013-04-03 20:30:00,
2013-04-03 16:35:00,79.1,70.1,30.02,ESE,122,8.0,18.0,74,0.00,,SCT100,0.00,VWS V14.01,2013-04-03 20:35:00,
2013-04-03 16:40:00,78.9,70.3,30.02,ESE,119,6.0,18.0,75,0.00,,SCT100,0.00,VWS V14.01,2013-04-03 20:40:00,
2013-04-03 16:45:00,78.4,69.8,30.02,ESE,118,7.0,18.0,75,0.00,,SCT100,0.00,VWS V14.01,2013-04-03 20:45:00,
2013-04-03 16:50:00,78.1,69.9,30.02,SE,128,5.0,18.0,76,0.00,,SCT100,0.00,VWS V14.01,2013-04-03 20:50:00,
2013-04-03 16:55:00,78.1,70.3,30.02,ESE,123,7.0,18.0,77,0.00,,SCT100,0.00,VWS V14.01,2013-04-03 20:55:00,
2013-04-03 17:00:00,78.1,70.3,30.02,SE,125,6.0,6.0,77,0.00,,SCT100,0.00,VWS V14.01,2013-04-03 21:00:00,
2013-04-03 17:05:00,78.0,70.2,30.02,SE,143,8.0,16.0,77,0.00,,BKN100,0.00,VWS V14.01,2013-04-03 21:05:00,
2013-04-03 17:10:00,78.0,70.2,30.03,SE,124,5.0,16.0,77,0.00,,BKN100,0.00,VWS V14.01,2013-04-03 21:10:00,
2013-04-03 17:15:00,77.9,70.1,30.03,ESE,119,3.0,16.0,77,0.00,,BKN100,0.00,VWS V14.01,2013-04-03 21:15:00,
2013-04-03 17:20:00,77.9,70.5,30.03,SE,143,9.0,16.0,78,0.00,,BKN100,0.00,VWS V14.01,2013-04-03 21:20:00,
2013-04-03 17:25:00,77.8,70.4,30.02,SSE,148,4.0,16.0,78,0.00,,BKN100,0.00,VWS V14.01,2013-04-03 21:25:00,
2013-04-03 17:30:00,77.8,70.4,30.03,SE,129,3.0,16.0,78,0.00,,BKN100,0.00,VWS V14.01,2013-04-03 21:30:00,
2013-04-03 17:35:00,77.8,70.4,30.03,SE,139,5.0,16.0,78,0.00,,BKN100,0.00,VWS V14.01,2013-04-03 21:35:00,
2013-04-03 17:40:00,77.8,70.4,30.03,SE,132,11.0,16.0,78,0.00,,BKN100,0.00,VWS V14.01,2013-04-03 21:40:00,
2013-04-03 17:45:00,77.6,70.2,30.02,ESE,111,11.0,16.0,78,0.00,,BKN100,0.00,VWS V14.01,2013-04-03 21:45:00,
2013-04-03 17:50:00,77.5,70.5,30.02,ESE,106,6.0,16.0,79,0.00,,BKN100,0.00,VWS V14.01,2013-04-03 21:50:00,
2013-04-03 17:55:00,77.3,70.3,30.02,SE,126,8.0,16.0,79,0.00,,BKN100,0.00,VWS V14.01,2013-04-03 21:55:00,
2013-04-03 18:00:00,77.2,70.9,30.03,ESE,113,6.0,10.0,81,0.00,,BKN100,0.00,VWS V14.01,2013-04-03 22:00:00,
2013-04-03 18:05:00,77.1,70.5,30.02,SE,142,7.0,11.0,80,0.00,,BKN100,0.00,VWS V14.01,2013-04-03 22:05:00,
2013-04-03 18:10:00,77.0,70.0,30.03,ESE,115,6.0,13.0,79,0.00,,BKN100,0.00,VWS V14.01,2013-04-03 22:10:00,
2013-04-03 18:15:00,77.0,70.4,30.03,ESE,121,8.0,13.0,80,0.00,,BKN100,0.00,VWS V14.01,2013-04-03 22:15:00,
2013-04-03 18:20:00,76.9,69.9,30.03,ESE,114,7.0,16.0,79,0.00,,BKN100,0.00,VWS V14.01,2013-04-03 22:20:00,
2013-04-03 18:25:00,76.9,69.9,30.03,SE,135,8.0,16.0,79,0.00,,BKN100,0.00,VWS V14.01,2013-04-03 22:25:00,
2013-04-03 18:30:00,76.9,69.9,30.02,ESE,119,7.0,16.0,79,0.00,,BKN100,0.00,VWS V14.01,2013-04-03 22:30:00,
2013-04-03 18:35:00,76.9,69.9,30.03,ESE,114,5.0,16.0,79,0.00,,BKN100,0.00,VWS V14.01,2013-04-03 22:35:00,
2013-04-03 18:40:00,76.7,69.7,30.02,ESE,110,10.0,16.0,79,0.00,,BKN100,0.00,VWS V14.01,2013-04-03 22:40:00,
2013-04-03 18:45:00,76.6,70.0,30.02,ESE,110,7.0,16.0,80,0.00,,BKN100,0.00,VWS V14.01,2013-04-03 22:45:00,
2013-04-03 18:50:00,76.5,69.5,30.02,SE,124,9.0,16.0,79,0.00,,BKN100,0.00,VWS V14.01,2013-04-03 22:50:00,
2013-04-03 18:55:00,76.4,69.8,30.02,ESE,114,8.0,16.0,80,0.00,,BKN100,0.00,VWS V14.01,2013-04-03 22:55:00,
2013-04-03 19:00:00,76.3,69.7,30.01,ESE,120,5.0,11.0,80,0.00,,BKN100,0.00,VWS V14.01,2013-04-03 23:00:00,
2013-04-03 19:05:00,76.2,69.6,30.02,ESE,123,7.0,14.0,80,0.00,,BKN100,0.00,VWS V14.01,2013-04-03 23:05:00,
2013-04-03 19:10:00,76.1,69.5,30.03,ESE,123,5.0,14.0,80,0.00,,BKN100,0.00,VWS V14.01,2013-04-03 23:10:00,
2013-04-03 19:15:00,76.0,69.4,30.02,SE,128,1.0,14.0,80,0.00,,BKN100,0.00,VWS V14.01,2013-04-03 23:15:00,
2013-04-03 19:21:00,76.0,69.4,30.02,ESE,118,2.0,14.0,80,0.00,,BKN100,0.00,VWS V14.01,2013-04-03 23:21:00,
2013-04-03 19:25:00,75.9,69.3,30.01,ESE,116,7.0,14.0,80,0.00,,BKN100,0.00,VWS V14.01,2013-04-03 23:25:00,
2013-04-03 19:31:00,75.9,69.3,30.01,SSE,149,1.0,14.0,80,0.00,,BKN100,0.00,VWS V14.01,2013-04-03 23:31:00,
2013-04-03 19:36:00,75.8,69.2,30.01,ESE,112,14.0,14.0,80,0.00,,BKN100,0.00,VWS V14.01,2013-04-03 23:36:00,
2013-04-03 19:41:00,75.7,69.1,30.01,SE,134,3.0,15.0,80,0.00,,BKN100,0.00,VWS V14.01,2013-04-03 23:41:00,
2013-04-03 19:46:00,75.7,69.5,30.01,SE,127,7.0,15.0,81,0.00,,BKN100,0.00,VWS V14.01,2013-04-03 23:46:00,
2013-04-03 19:51:00,75.6,69.4,30.01,SE,136,5.0,15.0,81,0.00,,BKN100,0.00,VWS V14.01,2013-04-03 23:51:00,
2013-04-03 19:56:00,75.5,69.3,30.01,ESE,118,8.0,15.0,81,0.00,,BKN100,0.00,VWS V14.01,2013-04-03 23:56:00,
2013-04-03 20:01:00,75.5,69.6,30.02,SE,126,7.0,10.0,82,0.00,,CLR,0.00,VWS V14.01,2013-04-04 00:01:00,
2013-04-03 20:06:00,75.4,69.2,30.02,SE,142,3.0,11.0,81,0.00,,CLR,0.00,VWS V14.01,2013-04-04 00:06:00,
2013-04-03 20:11:00,75.4,69.5,30.03,SE,133,4.0,13.0,82,0.00,,CLR,0.00,VWS V14.01,2013-04-04 00:11:00,
2013-04-03 20:16:00,75.4,69.5,30.02,SE,134,5.0,14.0,82,0.00,,CLR,0.00,VWS V14.01,2013-04-04 00:16:00,
2013-04-03 20:21:00,75.4,69.5,30.03,SE,130,8.0,14.0,82,0.00,,CLR,0.00,VWS V14.01,2013-04-04 00:21:00,
2013-04-03 20:26:00,75.3,69.4,30.02,ESE,103,8.0,14.0,82,0.00,,CLR,0.00,VWS V14.01,2013-04-04 00:26:00,
2013-04-03 20:31:00,75.3,69.4,30.02,ESE,120,4.0,14.0,82,0.00,,CLR,0.00,VWS V14.01,2013-04-04 00:31:00,
2013-04-03 20:36:00,75.3,69.4,30.02,ESE,122,9.0,14.0,82,0.00,,CLR,0.00,VWS V14.01,2013-04-04 00:36:00,
2013-04-03 20:41:00,75.2,69.7,30.02,ESE,119,5.0,14.0,83,0.00,,CLR,0.00,VWS V14.01,2013-04-04 00:41:00,
2013-04-03 20:46:00,75.2,69.7,30.03,SE,128,10.0,14.0,83,0.00,,CLR,0.00,VWS V14.01,2013-04-04 00:46:00,
2013-04-03 20:51:00,75.2,69.7,30.03,SE,127,3.0,14.0,83,0.00,,CLR,0.00,VWS V14.01,2013-04-04 00:51:00,
2013-04-03 20:56:00,75.2,69.7,30.04,SE,138,6.0,14.0,83,0.00,,CLR,0.00,VWS V14.01,2013-04-04 00:56:00,
2013-04-03 21:01:00,75.2,69.7,30.04,SSE,149,7.0,9.0,83,0.00,,CLR,0.00,VWS V14.01,2013-04-04 01:01:00,
2013-04-03 21:06:00,75.2,69.7,30.04,ESE,122,5.0,13.0,83,0.00,,CLR,0.00,VWS V14.01,2013-04-04 01:06:00,
2013-04-03 21:11:00,75.2,69.7,30.05,SSE,164,4.0,13.0,83,0.00,,CLR,0.00,VWS V14.01,2013-04-04 01:11:00,
2013-04-03 21:16:00,75.2,69.7,30.05,SE,142,4.0,13.0,83,0.00,,CLR,0.00,VWS V14.01,2013-04-04 01:16:00,
2013-04-03 21:21:00,75.2,69.7,30.06,SSE,166,9.0,13.0,83,0.00,,CLR,0.00,VWS V14.01,2013-04-04 01:21:00,
2013-04-03 21:26:00,75.2,69.7,30.05,SSE,155,5.0,13.0,83,0.00,,CLR,0.00,VWS V14.01,2013-04-04 01:26:00,
2013-04-03 21:31:00,75.2,69.7,30.06,SE,136,6.0,13.0,83,0.00,,CLR,0.00,VWS V14.01,2013-04-04 01:31:00,
2013-04-03 21:36:00,75.2,69.7,30.06,SE,140,3.0,13.0,83,0.00,,CLR,0.00,VWS V14.01,2013-04-04 01:36:00,
2013-04-03 21:42:00,75.2,69.7,30.06,SSE,164,4.0,13.0,83,0.00,,CLR,0.00,VWS V14.01,2013-04-04 01:42:00,
2013-04-03 21:47:00,75.1,69.6,30.07,SE,130,0.0,13.0,83,0.00,,CLR,0.00,VWS V14.01,2013-04-04 01:47:00,
2013-04-03 21:52:00,75.1,69.6,30.06,ESE,123,6.0,13.0,83,0.00,,CLR,0.00,VWS V14.01,2013-04-04 01:52:00,
2013-04-03 21:57:00,75.1,69.6,30.06,SE,125,6.0,13.0,83,0.00,,CLR,0.00,VWS V14.01,2013-04-04 01:57:00,
2013-04-03 22:02:00,75.1,69.6,30.06,SE,134,6.0,10.0,83,0.00,,SCT100,0.00,VWS V14.01,2013-04-04 02:02:00,
2013-04-03 22:07:00,75.1,69.6,30.06,South,177,0.0,10.0,83,0.00,,SCT100,0.00,VWS V14.01,2013-04-04 02:07:00,
2013-04-03 22:12:00,75.0,69.5,30.06,SE,124,4.0,10.0,83,0.00,,SCT100,0.00,VWS V14.01,2013-04-04 02:12:00,
2013-04-03 22:17:00,75.1,69.6,30.06,SSE,154,2.0,10.0,83,0.00,,SCT100,0.00,VWS V14.01,2013-04-04 02:17:00,
2013-04-03 22:22:00,75.0,69.5,30.06,SSE,167,2.0,10.0,83,0.00,,SCT100,0.00,VWS V14.01,2013-04-04 02:22:00,
2013-04-03 22:27:00,75.1,69.6,30.06,SE,143,0.0,10.0,83,0.00,,SCT100,0.00,VWS V14.01,2013-04-04 02:27:00,
2013-04-03 22:32:00,75.0,69.5,30.06,SE,127,8.0,10.0,83,0.00,,SCT100,0.00,VWS V14.01,2013-04-04 02:32:00,
2013-04-03 22:37:00,74.9,69.7,30.06,SSE,147,2.0,10.0,84,0.00,,SCT100,0.00,VWS V14.01,2013-04-04 02:37:00,
2013-04-03 22:42:00,75.0,69.8,30.07,SSE,158,2.0,10.0,84,0.00,,SCT100,0.00,VWS V14.01,2013-04-04 02:42:00,
2013-04-03 22:47:00,75.0,69.8,30.07,SSE,152,1.0,10.0,84,0.00,,SCT100,0.00,VWS V14.01,2013-04-04 02:47:00,
2013-04-03 22:52:00,74.9,69.7,30.07,SE,130,4.0,10.0,84,0.00,,SCT100,0.00,VWS V14.01,2013-04-04 02:52:00,
2013-04-03 22:57:00,75.0,69.8,30.07,SSE,149,2.0,11.0,84,0.00,,SCT100,0.00,VWS V14.01,2013-04-04 02:57:00,
2013-04-03 23:02:00,74.9,69.7,30.07,SSE,154,2.0,6.0,84,0.00,,BKN095,0.00,VWS V14.01,2013-04-04 03:02:00,
2013-04-03 23:07:00,74.9,69.7,30.07,SE,133,2.0,9.0,84,0.00,,BKN095,0.00,VWS V14.01,2013-04-04 03:07:00,
2013-04-03 23:12:00,74.9,69.7,30.08,SSE,155,3.0,9.0,84,0.00,,BKN095,0.00,VWS V14.01,2013-04-04 03:12:00,
2013-04-03 23:17:00,74.9,70.1,30.07,ESE,121,6.0,13.0,85,0.00,,BKN095,0.00,VWS V14.01,2013-04-04 03:17:00,
2013-04-03 23:22:00,74.9,69.7,30.07,SE,138,4.0,13.0,84,0.00,,BKN095,0.00,VWS V14.01,2013-04-04 03:22:00,
2013-04-03 23:27:00,74.9,69.7,30.07,SSE,165,7.0,13.0,84,0.00,,BKN095,0.00,VWS V14.01,2013-04-04 03:27:00,
2013-04-03 23:32:00,74.9,69.7,30.07,SE,143,3.0,13.0,84,0.00,,BKN095,0.00,VWS V14.01,2013-04-04 03:32:00,
2013-04-03 23:37:00,74.9,69.7,30.08,South,179,4.0,13.0,84,0.00,,BKN095,0.00,VWS V14.01,2013-04-04 03:37:00,
2013-04-03 23:42:00,74.8,69.7,30.08,SSE,148,4.0,13.0,84,0.00,,BKN095,0.00,VWS V14.01,2013-04-04 03:42:00,
2013-04-03 23:47:00,74.9,69.7,30.08,SE,141,5.0,13.0,84,0.00,,BKN095,0.00,VWS V14.01,2013-04-04 03:47:00,
2013-04-03 23:52:00,74.9,70.1,30.07,SSE,160,2.0,13.0,85,0.00,,BKN095,0.00,VWS V14.01,2013-04-04 03:52:00,
2013-04-03 23:57:00,74.8,69.7,30.08,SSE,147,2.0,13.0,84,0.00,,BKN095,0.00,VWS V14.01,2013-04-04 03:57:00,